Time,TemperatureF,DewpointF,PressureIn,WindDirection,WindDirectionDegrees,WindSpeedMPH,WindSpeedGustMPH,Humidity,HourlyPrecipIn,Conditions,Clouds,dailyrainin,SoftwareType,DateUTC
2013-09-03 00:12:00,67.6,63.3,29.55,ESE,112,0.0,-999.0,86,-99.99,,,0.00,Acu-Link.com,2013-09-03 04:12:00,
2013-09-03 00:27:00,66.9,62.9,29.55,ENE,67,0.0,-999.0,87,-99.99,,,0.00,Acu-Link.com,2013-09-03 04:27:00,
2013-09-03 00:42:00,66.7,63.0,29.55,SSE,157,0.0,-999.0,88,-99.99,,,0.00,Acu-Link.com,2013-09-03 04:42:00,
2013-09-03 00:58:00,66.2,62.5,29.55,ESE,112,0.0,-999.0,88,-99.99,,,0.00,Acu-Link.com,2013-09-03 04:58:00,
2013-09-03 01:13:00,65.7,62.4,29.55,East,90,0.0,-999.0,89,-99.99,,,0.00,Acu-Link.com,2013-09-03 05:13:00,
2013-09-03 01:28:00,65.7,62.4,29.55,ESE,112,0.0,-999.0,89,-99.99,,,0.00,Acu-Link.com,2013-09-03 05:28:00,
2013-09-03 01:43:00,65.3,62.0,29.55,East,90,0.0,-999.0,89,-99.99,,,0.00,Acu-Link.com,2013-09-03 05:43:00,
2013-09-03 01:58:00,64.8,61.8,29.56,East,90,0.0,-999.0,90,-99.99,,,0.00,Acu-Link.com,2013-09-03 05:58:00,
2013-09-03 02:13:00,64.2,61.5,29.55,NE,45,0.0,-999.0,91,-99.99,,,0.00,Acu-Link.com,2013-09-03 06:13:00,
2013-09-03 02:28:00,63.9,61.2,29.57,NE,45,0.0,-999.0,91,-99.99,,,0.00,Acu-Link.com,2013-09-03 06:28:00,
2013-09-03 02:43:00,63.9,61.2,29.57,NNE,22,0.0,-999.0,91,-99.99,,,0.00,Acu-Link.com,2013-09-03 06:43:00,
2013-09-03 02:58:00,63.9,61.2,29.57,NE,45,0.0,-999.0,91,-99.99,,,0.00,Acu-Link.com,2013-09-03 06:58:00,
2013-09-03 03:14:00,63.9,61.2,29.58,NE,45,0.0,-999.0,91,-99.99,,,0.00,Acu-Link.com,2013-09-03 07:14:00,
2013-09-03 03:29:00,63.9,61.5,29.58,ESE,112,0.0,-999.0,92,-99.99,,,0.00,Acu-Link.com,2013-09-03 07:29:00,
2013-09-03 03:44:00,63.9,61.5,29.58,East,90,0.0,-999.0,92,-99.99,,,0.00,Acu-Link.com,2013-09-03 07:44:00,
2013-09-03 03:59:00,63.9,61.5,29.58,ESE,112,0.0,-999.0,92,-99.99,,,0.00,Acu-Link.com,2013-09-03 07:59:00,
2013-09-03 04:16:00,63.9,61.5,29.58,South,180,0.0,-999.0,92,-99.99,,,0.00,Acu-Link.com,2013-09-03 08:16:00,
2013-09-03 04:31:00,63.9,61.5,29.58,ESE,112,0.0,-999.0,92,-99.99,,,0.00,Acu-Link.com,2013-09-03 08:31:00,
2013-09-03 04:47:00,63.3,60.9,29.58,NNE,22,0.0,-999.0,92,-99.99,,,0.00,Acu-Link.com,2013-09-03 08:47:00,
2013-09-03 05:02:00,62.4,60.0,29.58,ENE,67,0.0,-999.0,92,-99.99,,,0.00,Acu-Link.com,2013-09-03 09:02:00,
2013-09-03 05:17:00,62.1,59.7,29.59,NE,45,0.0,-999.0,92,-99.99,,,0.00,Acu-Link.com,2013-09-03 09:17:00,
2013-09-03 05:32:00,61.3,59.0,29.60,ENE,67,0.0,-999.0,92,-99.99,,,0.00,Acu-Link.com,2013-09-03 09:32:00,
2013-09-03 05:47:00,61.0,58.7,29.61,NE,45,0.0,-999.0,92,-99.99,,,0.00,Acu-Link.com,2013-09-03 09:47:00,
2013-09-03 06:02:00,60.4,58.1,29.61,ESE,112,0.0,-999.0,92,-99.99,,,0.00,Acu-Link.com,2013-09-03 10:02:00,
2013-09-03 06:17:00,60.3,58.0,29.62,NNE,22,0.0,-999.0,92,-99.99,,,0.00,Acu-Link.com,2013-09-03 10:17:00,
2013-09-03 06:32:00,60.3,58.3,29.62,NE,45,0.0,-999.0,93,-99.99,,,0.00,Acu-Link.com,2013-09-03 10:32:00,
2013-09-03 06:48:00,60.1,58.1,29.63,West,270,0.0,-999.0,93,-99.99,,,0.00,Acu-Link.com,2013-09-03 10:48:00,
2013-09-03 07:03:00,59.9,57.9,29.64,NNE,22,0.0,-999.0,93,-99.99,,,0.00,Acu-Link.com,2013-09-03 11:03:00,
2013-09-03 07:18:00,59.9,57.9,29.64,West,270,0.0,-999.0,93,-99.99,,,0.00,Acu-Link.com,2013-09-03 11:18:00,
2013-09-03 07:33:00,59.9,58.2,29.64,NNE,22,0.0,-999.0,94,-99.99,,,0.00,Acu-Link.com,2013-09-03 11:33:00,
2013-09-03 07:48:00,60.4,58.7,29.65,ENE,67,0.0,-999.0,94,-99.99,,,0.00,Acu-Link.com,2013-09-03 11:48:00,
2013-09-03 08:03:00,61.7,59.3,29.65,West,270,0.0,-999.0,92,-99.99,,,0.00,Acu-Link.com,2013-09-03 12:03:00,
2013-09-03 08:18:00,63.7,59.8,29.65,East,90,2.7,-999.0,87,-99.99,,,0.00,Acu-Link.com,2013-09-03 12:18:00,
2013-09-03 08:33:00,64.9,60.6,29.66,SSE,157,0.0,-999.0,86,-99.99,,,0.00,Acu-Link.com,2013-09-03 12:33:00,
2013-09-03 08:48:00,66.2,60.5,29.66,East,90,2.2,-999.0,82,-99.99,,,0.00,Acu-Link.com,2013-09-03 12:48:00,
2013-09-03 09:04:00,67.6,60.8,29.65,ENE,67,0.0,-999.0,79,-99.99,,,0.00,Acu-Link.com,2013-09-03 13:04:00,
2013-09-03 09:19:00,68.0,61.2,29.65,West,270,0.0,-999.0,79,-99.99,,,0.00,Acu-Link.com,2013-09-03 13:19:00,
2013-09-03 09:34:00,68.4,59.4,29.65,West,270,0.0,-999.0,73,-99.99,,,0.00,Acu-Link.com,2013-09-03 13:34:00,
2013-09-03 09:49:00,69.3,58.7,29.65,WSW,247,0.0,-999.0,69,-99.99,,,0.00,Acu-Link.com,2013-09-03 13:49:00,
2013-09-03 10:04:00,70.0,56.8,29.65,East,90,3.7,-999.0,63,-99.99,,,0.00,Acu-Link.com,2013-09-03 14:04:00,
2013-09-03 10:19:00,70.7,56.1,29.65,West,270,6.8,-999.0,60,-99.99,,,0.00,Acu-Link.com,2013-09-03 14:19:00,
2013-09-03 10:34:00,70.5,56.4,29.65,NNE,22,3.7,-999.0,61,-99.99,,,0.00,Acu-Link.com,2013-09-03 14:34:00,
2013-09-03 10:49:00,70.5,55.5,29.65,NE,45,4.2,-999.0,59,-99.99,,,0.00,Acu-Link.com,2013-09-03 14:49:00,
2013-09-03 11:05:00,70.9,55.4,29.66,East,90,3.7,-999.0,58,-99.99,,,0.00,Acu-Link.com,2013-09-03 15:05:00,
2013-09-03 11:20:00,72.1,54.5,29.65,East,90,4.7,-999.0,54,-99.99,,,0.00,Acu-Link.com,2013-09-03 15:20:00,
2013-09-03 11:35:00,72.0,53.4,29.65,West,270,6.8,-999.0,52,-99.99,,,0.00,Acu-Link.com,2013-09-03 15:35:00,
2013-09-03 11:50:00,73.9,54.1,29.65,NE,45,8.9,-999.0,50,-99.99,,,0.00,Acu-Link.com,2013-09-03 15:50:00,
2013-09-03 12:05:00,73.2,54.0,29.64,ENE,67,6.3,-999.0,51,-99.99,,,0.00,Acu-Link.com,2013-09-03 16:05:00,
2013-09-03 12:20:00,73.4,54.2,29.64,SE,135,6.3,-999.0,51,-99.99,,,0.00,Acu-Link.com,2013-09-03 16:20:00,
2013-09-03 12:35:00,72.3,54.7,29.65,South,180,4.2,-999.0,54,-99.99,,,0.00,Acu-Link.com,2013-09-03 16:35:00,
2013-09-03 12:50:00,73.4,54.7,29.64,SSE,157,4.2,-999.0,52,-99.99,,,0.00,Acu-Link.com,2013-09-03 16:50:00,
2013-09-03 13:06:00,74.1,55.9,29.65,ESE,112,3.7,-999.0,53,-99.99,,,0.00,Acu-Link.com,2013-09-03 17:06:00,
2013-09-03 13:21:00,74.7,54.8,29.65,NE,45,4.7,-999.0,50,-99.99,,,0.00,Acu-Link.com,2013-09-03 17:21:00,
2013-09-03 13:36:00,73.0,54.3,29.65,East,90,4.2,-999.0,52,-99.99,,,0.00,Acu-Link.com,2013-09-03 17:36:00,
2013-09-03 13:51:00,73.4,55.2,29.65,SE,135,3.2,-999.0,53,-99.99,,,0.00,Acu-Link.com,2013-09-03 17:51:00,
2013-09-03 14:06:00,72.5,55.4,29.65,South,180,1.7,-999.0,55,-99.99,,,0.00,Acu-Link.com,2013-09-03 18:06:00,
2013-09-03 14:21:00,72.0,55.9,29.65,South,180,4.2,-999.0,57,-99.99,,,0.00,Acu-Link.com,2013-09-03 18:21:00,
2013-09-03 14:36:00,72.1,55.5,29.65,SSE,157,6.3,-999.0,56,-99.99,,,0.00,Acu-Link.com,2013-09-03 18:36:00,
2013-09-03 14:51:00,73.2,56.1,29.64,East,90,3.7,-999.0,55,-99.99,,,0.00,Acu-Link.com,2013-09-03 18:51:00,
2013-09-03 15:06:00,72.1,56.0,29.64,SSE,157,2.2,-999.0,57,-99.99,,,0.00,Acu-Link.com,2013-09-03 19:06:00,
2013-09-03 15:22:00,71.2,56.1,29.65,NNE,22,2.7,-999.0,59,-99.99,,,0.00,Acu-Link.com,2013-09-03 19:22:00,
2013-09-03 15:37:00,73.0,56.4,29.64,South,180,8.3,-999.0,56,-99.99,,,0.00,Acu-Link.com,2013-09-03 19:37:00,
2013-09-03 15:52:00,73.6,56.4,29.65,WNW,292,4.7,-999.0,55,-99.99,,,0.00,Acu-Link.com,2013-09-03 19:52:00,
2013-09-03 16:07:00,73.0,56.9,29.65,West,270,1.7,-999.0,57,-99.99,,,0.00,Acu-Link.com,2013-09-03 20:07:00,
2013-09-03 16:22:00,72.3,56.7,29.64,South,180,3.7,-999.0,58,-99.99,,,0.00,Acu-Link.com,2013-09-03 20:22:00,
2013-09-03 16:37:00,72.9,57.2,29.64,ENE,67,2.2,-999.0,58,-99.99,,,0.00,Acu-Link.com,2013-09-03 20:37:00,
2013-09-03 16:52:00,72.9,57.7,29.64,ENE,67,0.0,-999.0,59,-99.99,,,0.00,Acu-Link.com,2013-09-03 20:52:00,
2013-09-03 17:07:00,72.1,57.0,29.65,East,90,4.2,-999.0,59,-99.99,,,0.00,Acu-Link.com,2013-09-03 21:07:00,
2013-09-03 17:22:00,72.0,56.9,29.66,East,90,3.7,-999.0,59,-99.99,,,0.00,Acu-Link.com,2013-09-03 21:22:00,
2013-09-03 17:38:00,71.6,57.0,29.67,WSW,247,5.8,-999.0,60,-99.99,,,0.00,Acu-Link.com,2013-09-03 21:38:00,
2013-09-03 17:53:00,72.7,57.1,29.67,West,270,6.3,-999.0,58,-99.99,,,0.00,Acu-Link.com,2013-09-03 21:53:00,
2013-09-03 18:08:00,71.8,56.2,29.68,SSE,157,4.2,-999.0,58,-99.99,,,0.00,Acu-Link.com,2013-09-03 22:08:00,
2013-09-03 18:23:00,74.7,57.9,29.68,East,90,1.7,-999.0,56,-99.99,,,0.00,Acu-Link.com,2013-09-03 22:23:00,
2013-09-03 18:38:00,70.7,56.6,29.69,East,90,3.2,-999.0,61,-99.99,,,0.00,Acu-Link.com,2013-09-03 22:38:00,
2013-09-03 18:53:00,69.8,56.6,29.68,SSE,157,4.7,-999.0,63,-99.99,,,0.00,Acu-Link.com,2013-09-03 22:53:00,
2013-09-03 19:09:00,68.5,56.3,29.69,NE,45,4.2,-999.0,65,-99.99,,,0.00,Acu-Link.com,2013-09-03 23:09:00,
2013-09-03 19:24:00,68.4,56.6,29.70,ENE,67,2.7,-999.0,66,-99.99,,,0.00,Acu-Link.com,2013-09-03 23:24:00,
2013-09-03 19:39:00,67.8,56.8,29.70,East,90,2.2,-999.0,68,-99.99,,,0.00,Acu-Link.com,2013-09-03 23:39:00,
2013-09-03 19:54:00,67.5,57.0,29.71,ENE,67,1.7,-999.0,69,-99.99,,,0.00,Acu-Link.com,2013-09-03 23:54:00,
2013-09-03 20:09:00,66.9,56.8,29.71,SSE,157,2.2,-999.0,70,-99.99,,,0.00,Acu-Link.com,2013-09-04 00:09:00,
2013-09-03 20:24:00,66.2,56.9,29.72,West,270,0.0,-999.0,72,-99.99,,,0.00,Acu-Link.com,2013-09-04 00:24:00,
2013-09-03 20:39:00,65.8,56.9,29.73,South,180,3.2,-999.0,73,-99.99,,,0.00,Acu-Link.com,2013-09-04 00:39:00,
2013-09-03 20:54:00,65.5,57.4,29.74,WNW,292,5.8,-999.0,75,-99.99,,,0.00,Acu-Link.com,2013-09-04 00:54:00,
2013-09-03 21:09:00,64.9,57.5,29.74,South,180,3.2,-999.0,77,-99.99,,,0.00,Acu-Link.com,2013-09-04 01:09:00,
2013-09-03 21:25:00,64.2,57.5,29.75,WSW,247,1.1,-999.0,79,-99.99,,,0.00,Acu-Link.com,2013-09-04 01:25:00,
2013-09-03 21:40:00,63.9,57.6,29.76,NNE,22,0.0,-999.0,80,-99.99,,,0.00,Acu-Link.com,2013-09-04 01:40:00,
2013-09-03 21:55:00,63.1,57.2,29.76,East,90,2.7,-999.0,81,-99.99,,,0.00,Acu-Link.com,2013-09-04 01:55:00,
2013-09-03 22:10:00,63.1,57.5,29.76,South,180,0.0,-999.0,82,-99.99,,,0.00,Acu-Link.com,2013-09-04 02:10:00,
2013-09-03 22:25:00,63.0,57.8,29.76,South,180,0.0,-999.0,83,-99.99,,,0.00,Acu-Link.com,2013-09-04 02:25:00,
2013-09-03 22:40:00,62.2,57.3,29.76,ESE,112,0.0,-999.0,84,-99.99,,,0.00,Acu-Link.com,2013-09-04 02:40:00,
2013-09-03 22:55:00,61.5,57.3,29.76,East,90,0.0,-999.0,86,-99.99,,,0.00,Acu-Link.com,2013-09-04 02:55:00,
2013-09-03 23:10:00,61.2,57.0,29.76,West,270,0.0,-999.0,86,-99.99,,,0.00,Acu-Link.com,2013-09-04 03:10:00,
2013-09-03 23:25:00,61.0,57.1,29.77,NE,45,0.0,-999.0,87,-99.99,,,0.00,Acu-Link.com,2013-09-04 03:25:00,
2013-09-03 23:41:00,61.3,57.1,29.77,NE,45,0.0,-999.0,86,-99.99,,,0.00,Acu-Link.com,2013-09-04 03:41:00,
2013-09-03 23:56:00,61.3,57.1,29.77,West,270,0.0,-999.0,86,-99.99,,,0.00,Acu-Link.com,2013-09-04 03:56:00,